Big Bear City, CA

8:05 AM PDT on April 19, 2018 (GMT -0700)
Big Bear City

Weather History for KL35 - October, 2011

Change the Weather History Date:

Sunday, October 30, 2011

  Actual Average (KBUO) Record (KBUO)
Temperature  
Mean Temperature 45 °F -  
Max Temperature 64 °F 71 °F 86 °F (1997)
Min Temperature 26 °F 47 °F 39 °F (1997)
Degree Days  
Heating Degree Days 20    
Moisture  
Dew Point 12 °F    
Average Humidity 33    
Maximum Humidity 59    
Minimum Humidity 11    
Precipitation  
Precipitation 0.00 in - - ()
Sea Level Pressure  
Sea Level Pressure 30.31 in    
Wind  
Wind Speed 2 mph (ENE)    
Max Wind Speed 10 mph    
Max Gust Speed 16 mph    
Visibility 10 miles    
Events      
Averages and records for this station are not official NWS values.
T = Trace of Precipitation, MM = Missing Value Source: NWS Daily Summary

Daily Weather History Graph

Daily Weather History Graph

Search for Another Location

Airport or City:

Trip Planner

Search our weather history database for the weather conditions in past years. The results will help you decide how hot, cold, wet, or windy it might be!

Date:

Astronomy

Oct. 30, 2011 Rise Set
Actual Time 7:05 AM PDT 5:56 PM PDT
Civil Twilight 6:39 AM PDT 6:22 PM PDT
Nautical Twilight 6:09 AM PDT 6:51 PM PDT
Astronomical Twilight 5:40 AM PDT 7:20 PM PDT
Moon 11:21 AM PDT (10/30) 9:37 PM PDT (10/30)
Length of Visible Light 11h 42m
Length of Day
10h 51m
Waxing Crescent, 21% of the Moon is Illuminated
Oct 30
Waxing Crescent
Nov 2
First Quarter
Nov 10
Full
Nov 18
Last Quarter
Nov 24
New

Hourly Weather History & Observations

Time (PDT) Temp. Dew Point Humidity Pressure Visibility Wind Dir Wind Speed Gust Speed Precip Events Conditions
12:15 AM 30.2 °F 10.4 °F 44% 30.31 in 10.0 mi Calm Calm - N/A   Clear
12:55 AM 30.2 °F 12.2 °F 47% 30.31 in 10.0 mi Calm Calm - N/A   Clear
1:15 AM 30.2 °F 12.2 °F 47% 30.31 in 10.0 mi Calm Calm - N/A   Clear
1:35 AM 30.2 °F 12.2 °F 47% 30.30 in 10.0 mi Calm Calm - N/A   Clear
1:55 AM 30.2 °F 12.2 °F 47% 30.30 in 10.0 mi Calm Calm - N/A   Clear
2:15 AM 30.2 °F 12.2 °F 47% 30.30 in 10.0 mi Calm Calm - N/A   Clear
2:35 AM 28.4 °F 12.2 °F 51% 30.30 in 10.0 mi Calm Calm - N/A   Clear
2:55 AM 28.4 °F 12.2 °F 51% 30.30 in 10.0 mi Calm Calm - N/A   Clear
3:15 AM 28.4 °F 12.2 °F 51% 30.30 in 10.0 mi Calm Calm - N/A   Clear
3:35 AM 28.4 °F 12.2 °F 51% 30.30 in 10.0 mi Calm Calm - N/A   Clear
3:55 AM 28.4 °F 12.2 °F 51% 30.30 in 10.0 mi Calm Calm - N/A   Clear
4:15 AM 28.4 °F 12.2 °F 51% 30.30 in 10.0 mi Calm Calm - N/A   Clear
4:35 AM 28.4 °F 12.2 °F 51% 30.30 in 10.0 mi Calm Calm - N/A   Clear
4:55 AM 28.4 °F 12.2 °F 51% 30.30 in 7.0 mi Calm Calm - N/A   Clear
5:15 AM 28.4 °F 12.2 °F 51% 30.31 in 10.0 mi Calm Calm - N/A   Clear
5:35 AM 28.4 °F 12.2 °F 51% 30.31 in 10.0 mi Calm Calm - N/A   Clear
6:15 AM 26.6 °F 12.2 °F 55% 30.31 in 10.0 mi Calm Calm - N/A   Clear
6:35 AM 28.4 °F 12.2 °F 51% 30.31 in 10.0 mi Calm Calm - N/A   Clear
6:55 AM 26.6 °F 12.2 °F 55% 30.32 in 10.0 mi Calm Calm - N/A   Clear
7:15 AM 26.6 °F 14.0 °F 59% 30.32 in 10.0 mi Calm Calm - N/A   Clear
7:35 AM 28.4 °F 14.0 °F 55% 30.33 in 10.0 mi Calm Calm - N/A   Clear
7:55 AM 30.2 °F 14.0 °F 51% 30.33 in 10.0 mi Calm Calm - N/A   Clear
8:15 AM 32.0 °F 15.8 °F 51% 30.34 in 10.0 mi Calm Calm - N/A   Clear
8:35 AM 33.8 °F 15.8 °F 48% 30.34 in 10.0 mi Calm Calm - N/A   Clear
9:15 AM 42.8 °F 14.0 °F 31% 30.34 in 10.0 mi Calm Calm - N/A   Clear
9:35 AM 50.0 °F 17.6 °F 28% 30.34 in 10.0 mi East 3.5 mph - N/A   Clear
9:55 AM 53.6 °F 15.8 °F 22% 30.34 in 10.0 mi East 3.5 mph - N/A   Clear
10:35 AM 60.8 °F 8.6 °F 13% 30.33 in 10.0 mi ENE 8.1 mph - N/A   Clear
10:55 AM 60.8 °F 8.6 °F 13% 30.33 in 10.0 mi NE 6.9 mph - N/A   Clear
11:15 AM 62.6 °F 8.6 °F 12% 30.33 in 10.0 mi NE 10.4 mph - N/A   Clear
11:35 AM 62.6 °F 8.6 °F 12% 30.33 in 10.0 mi NE 9.2 mph - N/A   Clear
11:55 AM 62.6 °F 8.6 °F 12% 30.32 in 10.0 mi ENE 10.4 mph - N/A   Clear
12:15 PM 62.6 °F 8.6 °F 12% 30.32 in 10.0 mi ENE 9.2 mph - N/A   Clear
12:35 PM 62.6 °F 8.6 °F 12% 30.31 in 10.0 mi ENE 9.2 mph - N/A   Clear
12:55 PM 62.6 °F 8.6 °F 12% 30.31 in 10.0 mi East 5.8 mph - N/A   Clear
1:35 PM 62.6 °F 8.6 °F 12% 30.30 in 10.0 mi East 10.4 mph - N/A   Clear
2:15 PM 64.4 °F 8.6 °F 11% 30.29 in 10.0 mi NE 8.1 mph 16.1 mph N/A   Clear
2:35 PM 62.6 °F 8.6 °F 12% 30.29 in 10.0 mi ENE 10.4 mph - N/A   Clear
2:55 PM 62.6 °F 8.6 °F 12% 30.29 in 10.0 mi NE 6.9 mph - N/A   Clear
3:15 PM 64.4 °F 8.6 °F 11% 30.28 in 10.0 mi ENE 8.1 mph - N/A   Clear
3:35 PM 62.6 °F 10.4 °F 13% 30.28 in 10.0 mi ENE 9.2 mph - N/A   Clear
4:15 PM 62.6 °F 8.6 °F 12% 30.28 in 10.0 mi ENE 5.8 mph - N/A   Clear
4:35 PM 62.6 °F 8.6 °F 12% 30.28 in 10.0 mi NE 5.8 mph - N/A   Clear
4:55 PM 60.8 °F 8.6 °F 13% 30.28 in 10.0 mi East 5.8 mph - N/A   Clear
5:15 PM 60.8 °F 10.4 °F 14% 30.28 in 10.0 mi East 3.5 mph - N/A   Clear
5:35 PM 55.4 °F 10.4 °F 17% 30.28 in 10.0 mi Calm Calm - N/A   Clear
5:55 PM 53.6 °F 14.0 °F 21% 30.29 in 10.0 mi Calm Calm - N/A   Clear
6:15 PM 50.0 °F 14.0 °F 24% 30.30 in 10.0 mi Calm Calm - N/A   Clear
6:35 PM 46.4 °F 14.0 °F 27% 30.30 in 10.0 mi Calm Calm - N/A   Clear
6:55 PM 44.6 °F 14.0 °F 29% 30.31 in 10.0 mi Calm Calm - N/A   Clear
7:15 PM 42.8 °F 12.2 °F 29% 30.31 in 10.0 mi Calm Calm - N/A   Clear
7:35 PM 41.0 °F 12.2 °F 31% 30.31 in 10.0 mi Calm Calm - N/A   Clear
8:15 PM 37.4 °F 14.0 °F 38% 30.31 in 10.0 mi Calm Calm - N/A   Clear
8:35 PM 37.4 °F 14.0 °F 38% 30.31 in 10.0 mi Calm Calm - N/A   Clear
8:55 PM 35.6 °F 14.0 °F 41% 30.31 in 10.0 mi Calm Calm - N/A   Clear
9:15 PM 35.6 °F 14.0 °F 41% 30.32 in 10.0 mi Calm Calm - N/A   Clear
9:35 PM 33.8 °F 14.0 °F 44% 30.31 in 10.0 mi Calm Calm - N/A   Clear
9:55 PM 33.8 °F 14.0 °F 44% 30.32 in 7.0 mi Calm Calm - N/A   Clear
10:15 PM 32.0 °F 14.0 °F 48% 30.32 in 10.0 mi Calm Calm - N/A   Clear
10:35 PM 32.0 °F 14.0 °F 48% 30.32 in 10.0 mi Calm Calm - N/A   Clear
10:55 PM 32.0 °F 14.0 °F 48% 30.32 in 10.0 mi Calm Calm - N/A   Clear
11:15 PM 32.0 °F 14.0 °F 48% 30.32 in 10.0 mi Calm Calm - N/A   Clear
11:35 PM 32.0 °F 14.0 °F 48% 30.31 in 10.0 mi Calm Calm - N/A   Clear
11:55 PM 32.0 °F 14.0 °F 48% 30.31 in 10.0 mi Calm Calm - N/A   Clear